This demonstration page uses our WeatherBlox Daily Observations layout. Learn more.

39.92423, -83.80882

Hourly Observations for April 6, 2019

Temp ( °F °C ) Dew Point ( °F °C ) Humidity (%) Winds ( mph kmh ) Pressure ( in mb ) Visibility ( mi km ) Precip ( " mm )
12:56 am 00:56 Cloudy 53 11.7 49 9.4 86 86 Calm 30.14 1021 10 16.0934 0 0
1:56 am 01:56 Cloudy 51 10.6 49 9.4 92 92 Calm 30.14 1021 10 16.0934 0 0
2:56 am 02:56 Cloudy 52 11.1 49 9.4 89 89 Calm 30.13 1020 10 16.0934 0 0
3:56 am 03:56 Cloudy 50 10 49 9.4 96 96 N 3 6 30.13 1020 10 16.0934 0 0
4:56 am 04:56 Cloudy 51 10.6 49 9.4 92 92 Calm 30.14 1021 10 16.0934 0 0
6:56 am 06:56 Cloudy 50 10 49 9.4 96 96 Calm 30.15 1021 9 14.48406 0 0
7:56 am 07:56 Cloudy 49 9.4 49 9.4 100 100 Calm 30.17 1022 7 11.26538 0 0
8:56 am 08:56 Cloudy 53 11.7 51 10.6 93 93 Calm 30.19 1023 7 11.26538 0 0
9:56 am 09:56 Cloudy 57 13.9 51 10.6 81 81 Calm 30.19 1023 10 16.0934 0 0
10:56 am 10:56 Cloudy 60 15.6 50 10 70 70 Calm 30.2 1023 10 16.0934 0 0
11:56 am 11:56 Cloudy 62 16.7 48 8.9 60 60 Calm 30.22 1023 10 16.0934 0 0
12:56 pm 12:56 Cloudy 63 17.2 49 9.4 60 60 Calm 30.21 1023 10 16.0934 0 0
1:56 pm 13:56 Cloudy 65 18.3 48 8.9 54 54 WSW 6 9 30.19 1023 10 16.0934 0 0
2:56 pm 14:56 Cloudy 64 17.8 47 8.3 54 54 E 8 13 30.16 1022 10 16.0934 0 0
3:56 pm 15:56 Mostly Cloudy 67 19.4 49 9.4 53 53 VRB 7 11 30.14 1021 10 16.0934 0 0
4:56 pm 16:56 Cloudy 67 19.4 47 8.3 49 49 ESE 12 19 30.13 1020 10 16.0934 0 0
5:56 pm 17:56 Cloudy 66 18.9 46 7.8 49 49 SSE 8 13 30.13 1020 10 16.0934 0 0
6:56 pm 18:56 Mostly Cloudy 66 18.9 47 8.3 50 50 SE 7 11 30.13 1020 10 16.0934 0 0
7:56 pm 19:56 Mostly Cloudy 62 16.7 47 8.3 58 58 SSE 5 7 30.13 1020 10 16.0934 0 0
8:56 pm 20:56 Clear 57 13.9 46 7.8 67 67 ESE 5 7 30.14 1021 10 16.0934 0 0
9:56 pm 21:56 Clear 52 11.1 47 8.3 83 83 S 3 6 30.17 1022 10 16.0934 0 0
10:56 pm 22:56 Clear 51 10.6 46 7.8 83 83 E 5 7 30.17 1022 10 16.0934 0 0
11:56 pm 23:56 Clear 47 8.3 45 7.2 93 93 E 6 9 30.15 1021 10 16.0934 0 0

Powered by AerisWeather